EW9763 Weather Reports


Display with metric or nautical units.
time (UTC)temp
F
wind
direction
speed
MPH
gust
MPH
rain 1hr
in
rain 24hr
in
rain mn
in
humidity
%
barometer
mb
20260901234010 87 133 4.0 8.0 0.00 0.00 0.00 74 1010.7
20260901233510 87 186 4.0 8.0 0.00 0.00 0.00 74 1010.9
20260901233010 87 165 4.0 7.0 0.00 0.00 0.00 74 1011.0
20260901232506 87 186 4.0 8.0 0.00 0.00 0.00 73 1011.1
20260901232005 88 200 3.0 8.0 0.00 0.00 0.00 72 1011.2
20260901231507 88 217 3.0 7.0 0.00 0.00 0.00 72 1011.3
20260901231004 88 161 4.0 8.0 0.00 0.00 0.00 71 1011.3
20260901230736 89 218 4.0 8.0 0.00 0.00 0.00 70 1011.3
20260901230005 89 235 3.0 7.0 0.00 0.00 0.00 69 1011.3
20260901225504 89 182 4.0 9.0 0.00 0.00 0.00 68 1011.3
20260901225230 89 209 4.0 9.0 0.00 0.00 0.00 67 1011.3
20260901224500 89 196 3.0 10.0 0.00 0.00 0.00 66 1011.3
20260901224001 90 192 3.0 10.0 0.00 0.00 0.00 66 1011.3
20260901223501 90 167 3.0 9.0 0.00 0.00 0.00 65 1011.3
20260901223000 90 232 3.0 7.0 0.00 0.00 0.00 65 1011.3
20260901222500 90 196 3.0 7.0 0.00 0.00 0.00 65 1011.4
20260901222000 91 181 4.0 10.0 0.00 0.00 0.00 65 1011.4
20260901221456 91 164 4.0 10.0 0.00 0.00 0.00 64 1011.3
20260901220956 91 219 3.0 8.0 0.00 0.00 0.00 63 1011.3
20260901220456 91 217 3.0 8.0 0.00 0.00 0.00 64 1011.2
20260901215956 91 263 4.0 11.0 0.00 0.00 0.00 63 1011.2
20260901215457 91 190 5.0 12.0 0.00 0.00 0.00 64 1011.2
20260901214955 91 196 4.0 12.0 0.00 0.00 0.00 64 1011.2
20260901214457 91 197 4.0 10.0 0.00 0.00 0.00 64 1011.2
20260901213951 91 187 5.0 10.0 0.00 0.00 0.00 64 1011.2
20260901213449 92 193 5.0 10.0 0.00 0.00 0.00 63 1011.2
20260901212948 92 199 4.0 8.0 0.00 0.00 0.00 64 1011.3
20260901212448 91 206 5.0 12.0 0.00 0.00 0.00 64 1011.2
20260901211946 91 194 6.0 12.0 0.00 0.00 0.00 64 1011.3
20260901211447 91 178 6.0 11.0 0.00 0.00 0.00 63 1011.4
20260901210939 91 234 6.0 14.0 0.00 0.00 0.00 63 1011.4
20260901210440 91 263 5.0 14.0 0.00 0.00 0.00 62 1011.5
20260901205941 92 210 3.0 9.0 0.00 0.00 0.00 62 1011.5
20260901205440 92 173 3.0 8.0 0.00 0.00 0.00 63 1011.5
20260901204941 92 231 2.0 7.0 0.00 0.00 0.00 63 1011.5
20260901204439 91 260 3.0 7.0 0.00 0.00 0.00 64 1011.5
20260901203940 91 161 4.0 7.0 0.00 0.00 0.00 65 1011.6
20260901203434 91 159 4.0 7.0 0.00 0.00 0.00 65 1011.6
20260901202934 91 182 4.0 8.0 0.00 0.00 0.00 64 1011.6
20260901202429 91 184 3.0 8.0 0.00 0.00 0.00 66 1011.6
20260901201933 90 188 3.0 7.0 0.00 0.00 0.00 66 1011.6
20260901201426 90 159 3.0 7.0 0.00 0.00 0.00 67 1011.7
20260901200923 91 180 3.0 6.0 0.00 0.00 0.00 66 1011.7
20260901200655 91 175 2.0 6.0 0.00 0.00 0.00 65 1011.9
20260901195923 91 216 1.0 3.0 0.00 0.00 0.00 65 1011.9
20260901195425 90 294 2.0 7.0 0.00 0.00 0.00 66 1011.9
20260901194925 90 286 2.0 7.0 0.00 0.00 0.00 66 1011.9
20260901194418 91 212 2.0 6.0 0.00 0.00 0.00 65 1012.0
20260901193917 91 260 2.0 6.0 0.00 0.00 0.00 66 1012.0
20260901193649 91 162 2.0 5.0 0.00 0.00 0.00 67 1012.1
20260901192918 91 244 3.0 11.0 0.00 0.00 0.00 68 1012.1
20260901192649 91 215 3.0 11.0 0.00 0.00 0.00 68 1012.2
20260901191919 90 205 2.0 6.0 0.00 0.00 0.00 70 1012.2
20260901191643 90 164 3.0 6.0 0.00 0.00 0.00 71 1012.3
20260901190912 89 311 2.0 6.0 0.00 0.00 0.00 71 1012.3
20260901190412 89 140 3.0 6.0 0.00 0.00 0.00 72 1012.3
20260901185911 89 219 3.0 6.0 0.00 0.00 0.00 71 1012.3
20260901185412 90 159 3.0 6.0 0.00 0.00 0.00 72 1012.3
20260901184912 89 152 2.0 6.0 0.00 0.00 0.00 72 1012.3
20260901184407 90 234 2.0 5.0 0.00 0.00 0.00 72 1012.3
20260901183908 89 138 2.0 4.0 0.00 0.00 0.00 74 1012.3
20260901183405 89 132 2.0 7.0 0.00 0.00 0.00 74 1012.3
20260901183136 89 311 2.0 7.0 0.00 0.00 0.00 72 1012.4
20260901182405 89 298 1.0 5.0 0.00 0.00 0.00 75 1012.4
20260901181907 88 212 2.0 8.0 0.00 0.00 0.00 75 1012.3
20260901181402 87 315 3.0 8.0 0.00 0.00 0.00 78 1012.4
20260901180902 87 58 3.0 6.0 0.00 0.00 0.00 77 1012.4
20260901180403 87 5 3.0 6.0 0.00 0.00 0.00 78 1012.5
20260901175902 86 319 4.0 8.0 0.00 0.00 0.00 79 1012.6
20260901175359 86 329 4.0 8.0 0.00 0.00 0.00 79 1012.6
20260901174901 87 277 2.0 8.0 0.00 0.00 0.00 79 1012.7
20260901174356 86 291 3.0 7.0 0.00 0.00 0.00 79 1012.7
20260901173859 86 306 3.0 7.0 0.00 0.00 0.00 81 1012.8
20260901173854 86 248 3.0 7.0 0.00 0.00 0.00 79 1012.7
20260901172853 86 5 3.0 7.0 0.00 0.00 0.00 80 1012.8
20260901172624 86 314 3.0 7.0 0.00 0.00 0.00 80 1012.9
20260901171854 86 288 1.0 7.0 0.00 0.00 0.00 82 1012.9
20260901171348 85 342 2.0 6.0 0.00 0.00 0.00 83 1013.1
20260901170847 85 326 3.0 8.0 0.00 0.00 0.00 81 1013.1
20260901170347 85 290 3.0 8.0 0.00 0.00 0.00 82 1013.1
20260901170120 85 42 3.0 5.0 0.00 0.00 0.00 82 1013.2
20260901165345 85 73 3.0 7.0 0.00 0.00 0.00 84 1013.1
20260901164847 84 26 3.0 7.0 0.00 0.00 0.00 83 1013.1
20260901164340 83 5 3.0 7.0 0.00 0.00 0.00 84 1013.2
20260901163839 83 19 3.0 7.0 0.00 0.00 0.00 84 1013.2
20260901163339 84 55 3.0 5.0 0.00 0.00 0.00 84 1013.3
20260901162840 84 31 3.0 8.0 0.00 0.00 0.00 85 1013.3
20260901162339 83 320 4.0 8.0 0.00 0.00 0.00 86 1013.5
20260901161840 83 325 3.0 5.0 0.00 0.00 0.00 85 1013.6
20260901161337 84 152 2.0 4.0 0.00 0.00 0.00 84 1013.6
20260901160835 84 313 2.0 5.0 0.00 0.00 0.00 84 1013.6
20260901160336 83 306 2.0 5.0 0.00 0.00 0.00 86 1013.6
20260901155836 82 46 2.0 4.0 0.00 0.00 0.00 87 1013.6
20260901155333 82 19 1.0 4.0 0.00 0.00 0.00 89 1013.6
20260901154833 81 159 1.0 2.0 0.00 0.00 0.00 91 1013.6
20260901154327 80 143 2.0 4.0 0.00 0.00 0.00 91 1013.5
20260901153826 80 143 2.0 5.0 0.00 0.00 0.00 91 1013.5
20260901153324 80 166 2.0 5.0 0.00 0.00 0.00 93 1013.6
20260901152821 79 159 2.0 5.0 0.00 0.00 0.00 95 1013.5
20260901152323 78 153 1.0 3.0 0.00 0.00 0.00 96 1013.5
20260901151820 76 313 1.0 4.0 0.00 0.00 0.00 97 1013.5
20260901151814 77 184 1.0 3.0 0.00 0.00 0.00 97 1013.5
20260901150813 76 294 1.0 4.0 0.00 0.00 0.00 97 1013.5
20260901150548 76 323 1.0 4.0 0.00 0.00 0.00 97 1013.5
20260901145813 76 263 1.0 4.0 0.00 0.00 0.00 97 1013.5
20260901145545 76 314 1.0 3.0 0.00 0.00 0.00 97 1013.4
20260901144812 76 334 2.0 5.0 0.00 0.00 0.00 97 1013.4
20260901144807 76 329 1.0 4.0 0.00 0.00 0.00 97 1013.3
20260901143803 76 327 3.0 5.0 0.00 0.00 0.00 97 1013.4
20260901143302 76 298 2.0 5.0 0.00 0.00 0.00 97 1013.3
20260901142801 76 322 3.0 4.0 0.00 0.00 0.00 97 1013.3
20260901142305 76 311 3.0 4.0 0.00 0.00 0.00 97 1013.3
20260901141802 75 328 2.0 4.0 0.00 0.00 0.00 97 1013.3
20260901141300 75 323 3.0 4.0 0.00 0.00 0.00 97 1013.3
20260901140759 75 321 3.0 5.0 0.00 0.00 0.00 97 1013.3
20260901140257 75 313 1.0 5.0 0.00 0.00 0.00 97 1013.3
20260901135757 75 31 0.0 0.0 0.00 0.00 0.00 97 1013.3
20260901135257 75 46 0.0 0.0 0.00 0.00 0.00 98 1013.3
20260901134758 75 35 0.0 0.0 0.00 0.00 0.00 98 1013.2
20260901134257 75 35 0.0 0.0 0.00 0.00 0.00 98 1013.2
20260901133753 75 35 0.0 0.0 0.00 0.00 0.00 97 1013.2
20260901133253 75 34 0.0 0.0 0.00 0.00 0.00 97 1013.2
20260901132753 75 32 0.0 0.0 0.00 0.00 0.00 97 1013.1
20260901132253 74 325 0.0 0.0 0.00 0.00 0.00 97 1013.3
20260901131753 74 322 0.0 0.0 0.00 0.00 0.00 97 1013.3
20260901131253 74 321 0.0 0.0 0.00 0.00 0.00 98 1013.3
20260901131021 74 301 0.0 0.0 0.00 0.00 0.00 98 1013.4
20260901130520 74 284 0.0 0.0 0.00 0.00 0.00 97 1013.4
20260901125749 74 194 0.0 0.0 0.00 0.00 0.00 97 1013.4
20260901125521 74 193 0.0 0.0 0.00 0.00 0.00 97 1013.4
20260901124750 74 188 0.0 0.0 0.00 0.00 0.00 98 1013.3
20260901124521 73 196 0.0 0.0 0.00 0.00 0.00 97 1013.3
20260901124017 73 198 0.0 0.0 0.00 0.00 0.00 98 1013.3
20260901123246 73 200 0.0 0.0 0.00 0.00 0.00 97 1013.4
20260901123017 72 186 0.0 0.0 0.00 0.00 0.00 97 1013.3
20260901122245 72 174 0.0 0.0 0.00 0.00 0.00 97 1013.3
20260901121746 72 180 0.0 0.0 0.00 0.00 0.00 97 1013.1
20260901121245 72 190 0.0 0.0 0.00 0.00 0.00 97 1013.2
20260901120744 72 193 0.0 0.0 0.00 0.00 0.00 97 1013.1
20260901120242 72 193 0.0 0.0 0.00 0.00 0.00 97 1013.0
20260901115742 71 186 0.0 0.0 0.00 0.00 0.00 97 1012.8
20260901115241 71 188 0.0 0.0 0.00 0.00 0.00 97 1012.8
20260901114741 71 193 0.0 0.0 0.00 0.00 0.00 97 1012.7
20260901114242 71 186 0.0 0.0 0.00 0.00 0.00 97 1012.6
20260901113738 72 200 0.0 0.0 0.00 0.00 0.00 97 1012.7
20260901113239 72 198 0.0 0.0 0.00 0.00 0.00 97 1012.7
20260901112735 72 197 0.0 0.0 0.00 0.00 0.00 97 1012.6
20260901112235 71 196 0.0 0.0 0.00 0.00 0.00 97 1012.5
20260901111737 71 194 0.0 0.0 0.00 0.00 0.00 97 1012.4
20260901111235 71 193 0.0 0.0 0.00 0.00 0.00 97 1012.4
20260901110736 71 189 0.0 0.0 0.00 0.00 0.00 97 1012.4
20260901110234 71 189 0.0 0.0 0.00 0.00 0.00 97 1012.3
20260901110007 72 187 0.0 0.0 0.00 0.00 0.00 96 1012.3
20260901105232 72 188 0.0 0.0 0.00 0.00 0.00 96 1012.3
20260901104729 72 192 0.0 0.0 0.00 0.00 0.00 96 1012.2
20260901104230 72 192 0.0 0.0 0.00 0.00 0.00 97 1012.2
20260901103729 72 188 0.0 0.0 0.00 0.00 0.00 96 1012.2
20260901103457 72 186 0.0 0.0 0.00 0.00 0.00 96 1012.1
20260901102724 72 186 0.0 0.0 0.00 0.00 0.00 96 1012.1
20260901102225 72 186 0.0 0.0 0.00 0.01 0.00 96 1012.0
20260901102220 72 186 0.0 0.0 0.00 0.01 0.00 96 1012.1
20260901101216 72 186 0.0 0.0 0.00 0.01 0.00 96 1012.1
20260901100944 72 180 0.0 0.0 0.00 0.01 0.00 96 1012.0
20260901100213 72 182 0.0 0.0 0.00 0.01 0.00 96 1012.0
20260901095708 72 182 0.0 0.0 0.00 0.01 0.00 96 1012.1
20260901095210 72 183 0.0 0.0 0.00 0.01 0.00 96 1012.0
20260901094941 72 185 0.0 0.0 0.00 0.01 0.00 96 1012.1
20260901094208 73 184 0.0 0.0 0.00 0.01 0.00 96 1012.1
20260901093704 73 187 0.0 0.0 0.00 0.01 0.00 96 1012.3
20260901093205 73 187 0.0 0.0 0.00 0.01 0.00 96 1012.3
20260901092659 73 187 0.0 1.0 0.00 0.01 0.00 96 1012.4
20260901092159 73 187 0.0 1.0 0.00 0.04 0.00 96 1012.3
20260901091700 73 188 0.0 0.0 0.00 0.04 0.00 96 1012.2
20260901091656 73 188 0.0 0.0 0.00 0.04 0.00 96 1012.3
20260901090931 73 188 0.0 0.0 0.00 0.04 0.00 96 1012.2
20260901090157 73 185 0.0 0.0 0.00 0.04 0.00 96 1012.2
20260901085652 73 184 0.0 0.0 0.00 0.04 0.00 95 1012.2
20260901085152 73 182 0.0 0.0 0.00 0.04 0.00 96 1012.1
20260901084654 74 182 0.0 0.0 0.00 0.04 0.00 96 1012.1
20260901084425 74 182 0.0 0.0 0.00 0.04 0.00 96 1012.1
20260901083650 74 182 0.0 0.0 0.00 0.04 0.00 96 1012.0
20260901083151 74 182 0.0 0.0 0.00 0.04 0.00 96 1012.0
20260901082645 74 182 0.0 0.0 0.00 0.04 0.00 95 1011.9
20260901082142 74 183 0.0 1.0 0.00 0.04 0.00 95 1011.9
20260901081640 74 182 0.0 1.0 0.00 0.04 0.00 95 1012.0
20260901081138 74 182 0.0 0.0 0.00 0.04 0.00 95 1012.0
20260901080638 74 182 0.0 0.0 0.00 0.04 0.00 95 1012.0
20260901080407 74 179 0.0 0.0 0.00 0.04 0.00 95 1011.9
20260901075634 74 179 0.0 0.0 0.00 0.04 0.00 95 1011.9
20260901075136 74 179 0.0 0.0 0.00 0.04 0.00 95 1011.9
20260901074635 74 179 0.0 0.0 0.00 0.04 0.00 95 1011.9
20260901074133 74 179 0.0 0.0 0.00 0.04 0.00 95 1011.9
20260901073633 74 179 1.0 2.0 0.00 0.04 0.00 95 1011.9
20260901073130 74 179 1.0 4.0 0.00 0.04 0.00 95 1011.9
20260901072630 75 179 2.0 4.0 0.00 0.05 0.00 95 1011.8
20260901072403 75 188 2.0 4.0 0.00 0.05 0.00 95 1011.8
20260901071629 75 188 1.0 4.0 0.00 0.05 0.00 95 1011.7
20260901071127 75 176 0.0 3.0 0.00 0.05 0.00 94 1011.7
20260901070626 75 176 0.0 2.0 0.00 0.05 0.00 95 1011.6
20260901070120 75 176 1.0 3.0 0.00 0.05 0.00 95 1011.7
20260901065852 75 176 2.0 3.0 0.00 0.05 0.00 94 1011.7
20260901065347 75 175 2.0 3.0 0.00 0.05 0.00 94 1011.6
20260901064614 75 175 2.0 3.0 0.00 0.05 0.00 94 1011.6
20260901064116 75 175 2.0 5.0 0.00 0.05 0.00 94 1011.6
20260901063612 75 173 2.0 5.0 0.00 0.05 0.00 94 1011.6
20260901063112 75 172 1.0 5.0 0.00 0.05 0.00 94 1011.7
20260901062613 75 171 1.0 3.0 0.00 0.05 0.00 94 1011.7
20260901062110 76 184 1.0 3.0 0.00 0.05 0.00 94 1011.9
20260901061608 76 184 2.0 3.0 0.00 0.05 0.00 94 1012.0
20260901061109 76 184 2.0 3.0 0.00 0.05 0.00 94 1012.1
20260901060837 76 184 1.0 3.0 0.00 0.05 0.00 93 1011.9
20260901060104 76 184 1.0 3.0 0.00 0.05 0.00 93 1011.9
20260901055834 76 183 1.0 3.0 0.00 0.05 0.00 93 1011.9
20260901055102 76 183 1.0 3.0 0.00 0.06 0.00 93 1011.9
20260901054602 76 184 0.0 3.0 0.00 0.06 0.00 93 1011.9
20260901054336 76 185 0.0 3.0 0.00 0.06 0.00 93 1011.8
20260901053600 76 178 0.0 2.0 0.00 0.06 0.00 93 1011.9
20260901053059 76 178 1.0 2.0 0.00 0.06 0.00 92 1011.7
20260901052600 76 178 1.0 2.0 0.00 0.06 0.00 92 1011.7
20260901052104 77 179 0.0 2.0 0.00 0.06 0.00 92 1011.8
20260901052100 76 178 1.0 2.0 0.00 0.06 0.00 92 1011.7
20260901051055 77 179 0.0 1.0 0.00 0.06 0.00 92 1011.8
20260901050554 77 179 0.0 2.0 0.00 0.06 0.00 92 1011.7
20260901050054 77 179 1.0 3.0 0.00 0.06 0.00 92 1011.7
20260901045824 77 179 1.0 3.0 0.00 0.06 0.06 92 1011.7
20260901045053 77 179 1.0 3.0 0.00 0.06 0.06 92 1011.7
20260901044550 77 180 1.0 4.0 0.00 0.06 0.06 92 1011.7
20260901044051 77 180 2.0 4.0 0.00 0.06 0.06 92 1011.7
20260901043546 77 180 2.0 4.0 0.00 0.06 0.06 92 1011.7
20260901043046 77 183 2.0 4.0 0.00 0.06 0.06 92 1011.7
20260901042544 77 185 2.0 4.0 0.00 0.06 0.06 92 1011.7
20260901042044 77 190 2.0 4.0 0.00 0.06 0.06 92 1011.6
20260901041542 77 183 2.0 6.0 0.00 0.06 0.06 92 1011.6
20260901041314 77 188 2.0 6.0 0.00 0.06 0.06 91 1011.6
20260901040539 78 178 2.0 4.0 0.00 0.06 0.06 91 1011.7
20260901040035 78 177 1.0 3.0 0.00 0.06 0.06 91 1011.7
20260901035533 78 193 0.0 0.0 0.00 0.06 0.06 91 1011.7
20260901035300 78 188 0.0 0.0 0.00 0.06 0.06 90 1011.7
20260901034531 78 188 0.0 0.0 0.00 0.06 0.06 90 1011.8
20260901034029 78 188 0.0 0.0 0.00 0.06 0.06 90 1011.8
20260901033526 79 186 1.0 4.0 0.00 0.06 0.06 90 1011.8
20260901033027 79 188 2.0 4.0 0.00 0.06 0.06 89 1011.7
20260901032526 79 186 3.0 5.0 0.00 0.06 0.06 89 1011.7
20260901032024 79 186 3.0 6.0 0.00 0.06 0.06 89 1011.6
20260901031525 79 189 3.0 6.0 0.00 0.06 0.06 89 1011.7
20260901031023 80 195 3.0 5.0 0.00 0.06 0.06 88 1011.7
20260901031019 79 192 3.0 6.0 0.00 0.06 0.06 89 1011.6
20260901030014 80 190 2.0 5.0 0.00 0.06 0.06 88 1011.9
20260901025517 80 183 2.0 5.0 0.00 0.06 0.06 88 1011.9
20260901025013 80 189 2.0 5.0 0.00 0.06 0.06 88 1011.8
20260901024746 80 182 2.0 5.0 0.00 0.06 0.06 88 1011.9
20260901024013 80 180 2.0 5.0 0.00 0.06 0.06 88 1011.7
20260901023510 80 175 3.0 6.0 0.00 0.06 0.06 88 1011.7
20260901023010 80 181 3.0 6.0 0.00 0.06 0.06 88 1011.8
20260901022510 80 188 3.0 6.0 0.00 0.06 0.06 87 1011.7
20260901022011 80 189 2.0 5.0 0.00 0.06 0.06 87 1011.7
20260901021510 80 188 2.0 5.0 0.00 0.06 0.06 87 1011.8
20260901021011 81 160 2.0 5.0 0.00 0.06 0.06 87 1011.8
20260901020512 81 185 2.0 4.0 0.00 0.06 0.06 86 1011.8
20260901020011 81 185 2.0 6.0 0.00 0.06 0.06 86 1011.8
20260901015510 81 194 3.0 7.0 0.00 0.06 0.06 86 1011.8
20260901015009 81 186 2.0 7.0 0.00 0.06 0.06 85 1011.6
20260901014511 81 206 2.0 6.0 0.00 0.06 0.06 85 1011.6
20260901014005 82 182 2.0 6.0 0.00 0.06 0.06 85 1011.6
20260901013736 82 188 2.0 6.0 0.00 0.06 0.06 85 1011.5
20260901013007 82 211 2.0 6.0 0.00 0.06 0.06 84 1011.4
20260901012737 82 165 2.0 5.0 0.00 0.06 0.06 84 1011.4
20260901012006 82 184 3.0 5.0 0.00 0.06 0.06 84 1011.2
20260901011507 82 205 3.0 6.0 0.00 0.06 0.06 83 1011.1
20260901011002 83 185 2.0 6.0 0.00 0.06 0.06 83 1011.2
20260901010501 83 197 2.0 6.0 0.00 0.06 0.06 83 1011.1
20260901010004 83 199 3.0 6.0 0.00 0.06 0.06 82 1011.0
20260901005732 83 197 2.0 6.0 0.00 0.06 0.06 82 1010.9
20260901005003 83 190 2.0 4.0 0.00 0.06 0.06 81 1010.8
20260901004503 83 186 2.0 4.0 0.00 0.06 0.06 81 1010.8
20260901003958 83 184 2.0 5.0 0.00 0.06 0.06 81 1010.7
20260901003730 83 186 4.0 9.0 0.00 0.06 0.06 81 1010.5
20260901002958 84 186 4.0 9.0 0.00 0.06 0.06 80 1010.5
20260901002458 84 178 3.0 7.0 0.00 0.06 0.06 80 1010.5
20260901001958 84 190 3.0 7.0 0.00 0.06 0.06 79 1010.4
20260901001500 84 215 3.0 7.0 0.00 0.06 0.06 79 1010.4
20260901000954 84 215 3.0 7.0 0.00 0.06 0.06 79 1010.4
20260901000457 85 193 3.0 7.0 0.00 0.06 0.06 78 1010.3
20260831235954 85 197 3.0 7.0 0.00 0.06 0.06 78 1010.2
20260831235727 85 213 2.0 7.0 0.00 0.06 0.06 78 1010.3
20260831235000 85 169 4.0 8.0 0.00 0.06 0.06 77 1010.1
20260831234954 85 243 3.0 8.0 0.00 0.06 0.06 77 1010.3